{"data":{"norad_id":68750,"epoch":"2026-05-25T04:00:03.998880Z","epoch_age_seconds":64251,"freshness":"FRESH","line1":"1 68750U 26082Y   26145.16671295 -.00016798  00000+0 -51880-3 0  9996","line2":"2 68750  97.2859   8.0266 0001550  93.1609  30.6456 15.33464917  6002","mean_motion":15.33464917,"eccentricity":0.000155,"inclination_deg":97.2859,"raan_deg":8.0266,"arg_perigee_deg":93.1609,"mean_anomaly_deg":30.6456,"bstar":-0.0005188,"rev_number":600,"period_min":93.904984981146,"perigee_km":464.42315489832,"apogee_km":466.54467738233,"semimajor_km":6843.6209161403,"source":"CELESTRAK","updated_at":"2026-05-25T13:38:22.031685Z"}}